Regional Weather Roundup
Issued by NWS Bismarck, ND

Home | Current Version | Previous Version | Text Only | Print | Product List | Glossary On
Versions: 1 2 3 4 5 6 7 8 9 10 11 12 13 14 15 16 17 18 19 20 21 22 23 24 25 26 27 28 29 30 31 32 33 34 35 36 37 38 39 40 41 42 43 44 45 46 47 48 49 50
089
ASUS43 KBIS 191102
RWRBIS

NWR BROADCAST TEXT
NATIONAL WEATHER SERVICE BISMARCK ND
500 AM CST TUE NOV 19 2019

NOTE: "FAIR" INDICATES FEW OR NO CLOUDS BELOW 12,000 FEET WITH NO
SIGNIFICANT WEATHER AND/OR OBSTRUCTIONS TO VISIBILITY.


CITY           SKY/WX    TMP DP  RH WIND       PRES   REMARKS
WILLISTON      FAIR      27  23  85 W9        29.80S WCI  18
MINOT          CLOUDY    38  30  73 W10       29.76R
MINOT AFB      CLOUDY    36  31  80 NW8       29.74S
BISMARCK       CLOUDY    40  31  70 NW13      29.81R
DICKINSON      CLEAR     27  22  81 W9        29.79S WCI  18
GARRISON         N/A     36  31  82 NW13      29.78S
HETTINGER ARPT PTCLDY    25  22  88 NW3       29.84R
JAMESTOWN      CLOUDY    38  33  82 W13       29.73R
CARRINGTON     CLOUDY    37  34  87 W14       29.75S
HAZEN          CLOUDY    36  32  87 W7G14     29.82S
MANDAN         CLOUDY    36  32  87 W7        29.81R
RUGBY          CLOUDY    34  36 100 W13       29.73R
STANLEY        FAIR      30  30 100 W5        29.78S
TIOGA          FAIR      28  28 100 NW9       29.79S WCI  20
WATFORD CITY   FAIR      25  25 100 CALM      29.81F
$$

CITY           SKY/WX    TMP DP  RH WIND       PRES   REMARKS
GRAND FORKS    MOCLDY    37  33  85 NW9       29.68R
GRAND FORKS AF NOT AVBL
DEVILS LAKE    CLOUDY    36  33  89 NW13      29.71R
FARGO          MOCLDY    34  33  96 W9        29.70R
CANDO          CLOUDY    36  36 100 W8        29.72R
CAVALIER       CLOUDY    39  36  87 NW8       29.66S
GRAFTON        CLOUDY    37  37 100 W7        29.69R
GWINNER        CLOUDY    36  34  93 W13       29.73S
LANGDON        CLOUDY    36  36 100 NW13      29.67R
ROLLA          CLOUDY    36  34  93 NW16      29.69R
WALHALLA       CLOUDY    39  39 100 NW8       29.67S
$$

CITY           SKY/WX    TMP DP  RH WIND       PRES   REMARKS
ABERDEEN       CLEAR     34  28  79 W9        29.79S
MOBRIDGE       PTCLDY    32  26  78 NW8       29.80S
RAPID CITY     CLOUDY    36  28  73 NW6       29.83F
GLASGOW        MOCLDY    30  23  75 NE6       29.80S
SIDNEY         CLEAR     26  22  84 W5        29.83F
WOLF POINT     CLEAR     24  20  84 CALM      29.83S
GLENDIVE       CLEAR     24  21  88 W3        29.82F
MILES CITY     CLEAR     29  27  92 SE7       29.79F
BAKER          PTCLDY    24  22  91 CALM      29.82F
$$

CITY           SKY/WX    TMP DP  RH WIND       PRES   REMARKS
BILLINGS       PTCLDY    34  29  82 N6        29.72F
GREAT FALLS    CLOUDY    36  29  75 NE5       29.65F
$$





USA.gov is the U.S. government's official web portal to all federal, state and local government web resources and services.